• In Deutschland
  • Länderverzeichnis
  • Für 7 Tage
  • Wassertemperatur
  • Satellitenkarten
  • Wetterkarte
  • Widgets
  • user-avatar
    Anmelden

    Stündliche Wetter Bad Dürrheim

    Heute, 21 Januar, Sonntag

    Zeit Temperatur Niederschläge Wind Luftdruck Luftfeuchtigkeit
    00:00 +1°C° 0,8 mm 4 m/S 688 mmHg 94%
    01:00 +1°C° 0 mm 3 m/S 688 mmHg 93%
    02:00 0°C° 0,1 mm 4 m/S 689 mmHg 93%
    03:00 0°C° 0,1 mm 4 m/S 690 mmHg 92%
    04:00 -1°C° 0,1 mm 4 m/S 691 mmHg 92%
    05:00 -1°C° 0,1 mm 4 m/S 692 mmHg 92%
    06:00 -2°C° 0,1 mm 4 m/S 693 mmHg 91%
    07:00 -1°C° 0 mm 3 m/S 694 mmHg 91%
    08:00 -1°C° 0,1 mm 3 m/S 695 mmHg 90%
    09:00 -2°C° 0,1 mm 4 m/S 696 mmHg 89%
    10:00 -2°C° 0,1 mm 4 m/S 697 mmHg 88%
    11:00 -1°C° 0 mm 3 m/S 698 mmHg 85%
    12:00 0°C° 0 mm 3 m/S 698 mmHg 83%
    13:00 0°C° 0 mm 3 m/S 699 mmHg 82%
    14:00 +1°C° 0 mm 2 m/S 700 mmHg 82%
    15:00 +2°C° 0 mm 1 m/S 700 mmHg 82%
    16:00 +2°C° 0 mm 1 m/S 700 mmHg 82%
    17:00 +1°C° 0,1 mm 1 m/S 700 mmHg 84%
    18:00 +1°C° 0,1 mm 1 m/S 700 mmHg 87%
    19:00 0°C° 0,1 mm 1 m/S 700 mmHg 89%
    20:00 0°C° 0,6 mm 1 m/S 700 mmHg 90%
    21:00 -2°C° 0,6 mm 2 m/S 699 mmHg 92%
    22:00 -1°C° 0,6 mm 2 m/S 699 mmHg 93%
    23:00 -1°C° 1,1 mm 2 m/S 698 mmHg 94%

    Morgen, 22 Januar, Montag

    Zeit Temperatur Niederschläge Wind Luftdruck Luftfeuchtigkeit
    00:00 -1°C° 1,1 mm 2 m/S 697 mmHg 94%
    01:00 +1°C° 1,1 mm 2 m/S 696 mmHg 95%
    02:00 0°C° 1,7 mm 3 m/S 696 mmHg 95%
    03:00 +1°C° 1,7 mm 3 m/S 695 mmHg 96%
    04:00 +2°C° 1,7 mm 3 m/S 695 mmHg 97%
    05:00 +3°C° 1,3 mm 3 m/S 695 mmHg 97%
    06:00 +3°C° 1,3 mm 4 m/S 695 mmHg 97%
    07:00 +4°C° 1,3 mm 4 m/S 695 mmHg 97%
    08:00 +4°C° 0,4 mm 4 m/S 695 mmHg 97%
    09:00 +4°C° 0,4 mm 3 m/S 695 mmHg 97%
    10:00 +5°C° 0,4 mm 3 m/S 695 mmHg 97%
    11:00 +4°C° 1,6 mm 3 m/S 695 mmHg 97%
    12:00 +4°C° 1,6 mm 3 m/S 695 mmHg 97%
    13:00 +5°C° 1,6 mm 2 m/S 695 mmHg 98%
    14:00 +5°C° 1 mm 2 m/S 696 mmHg 98%
    15:00 +5°C° 1 mm 2 m/S 696 mmHg 98%
    16:00 +5°C° 1 mm 2 m/S 697 mmHg 98%
    17:00 +4°C° 0,2 mm 2 m/S 698 mmHg 97%
    18:00 +4°C° 0,2 mm 2 m/S 698 mmHg 97%
    19:00 +4°C° 0,2 mm 2 m/S 699 mmHg 97%
    20:00 +4°C° 0,1 mm 2 m/S 700 mmHg 96%
    21:00 +4°C° 0,1 mm 2 m/S 701 mmHg 96%
    22:00 +4°C° 0,1 mm 2 m/S 702 mmHg 96%
    23:00 +3°C° 0 mm 2 m/S 702 mmHg 96%

    übermorgen, 23 Januar, Dienstag

    Zeit Temperatur Niederschläge Wind Luftdruck Luftfeuchtigkeit
    00:00 +3°C° 0 mm 2 m/S 703 mmHg 96%
    01:00 +2°C° 0 mm 2 m/S 703 mmHg 96%
    02:00 +2°C° 0 mm 2 m/S 703 mmHg 95%
    03:00 +1°C° 0 mm 2 m/S 704 mmHg 95%
    04:00 +1°C° 0 mm 2 m/S 704 mmHg 95%
    05:00 +1°C° 0 mm 2 m/S 704 mmHg 95%
    06:00 +2°C° 0 mm 1 m/S 704 mmHg 95%
    07:00 +1°C° 0 mm 1 m/S 704 mmHg 95%
    08:00 +2°C° 0 mm 1 m/S 705 mmHg 94%
    09:00 +3°C° 0 mm 1 m/S 705 mmHg 93%
    10:00 +4°C° 0 mm 1 m/S 706 mmHg 92%
    11:00 +4°C° 0 mm 2 m/S 706 mmHg 90%
    12:00 +5°C° 0 mm 2 m/S 706 mmHg 88%
    13:00 +6°C° 0 mm 2 m/S 706 mmHg 86%
    14:00 +6°C° 0 mm 2 m/S 706 mmHg 87%
    15:00 +5°C° 0 mm 2 m/S 705 mmHg 89%
    16:00 +5°C° 0 mm 2 m/S 705 mmHg 91%
    17:00 +5°C° 0 mm 2 m/S 706 mmHg 92%
    18:00 +4°C° 0 mm 2 m/S 706 mmHg 93%
    19:00 +3°C° 0 mm 2 m/S 706 mmHg 94%
    20:00 +3°C° 0,1 mm 2 m/S 706 mmHg 93%
    21:00 +4°C° 0,1 mm 2 m/S 706 mmHg 93%
    22:00 +4°C° 0,1 mm 2 m/S 706 mmHg 92%
    23:00 +4°C° 0 mm 2 m/S 706 mmHg 92%

    24 Januar, Mittwoch

    Zeit Temperatur Niederschläge Wind Luftdruck Luftfeuchtigkeit
    00:00 +4°C° 0 mm 2 m/S 706 mmHg 92%
    01:00 +3°C° 0 mm 2 m/S 706 mmHg 91%
    02:00 +3°C° 0 mm 2 m/S 706 mmHg 91%
    03:00 +3°C° 0 mm 2 m/S 706 mmHg 92%
    04:00 +3°C° 0 mm 2 m/S 706 mmHg 92%
    05:00 +3°C° 0 mm 2 m/S 706 mmHg 92%
    06:00 +3°C° 0 mm 2 m/S 706 mmHg 92%
    07:00 +3°C° 0 mm 2 m/S 706 mmHg 92%
    08:00 +3°C° 0 mm 2 m/S 706 mmHg 91%
    09:00 +4°C° 0 mm 2 m/S 705 mmHg 89%
    10:00 +5°C° 0 mm 2 m/S 705 mmHg 88%
    11:00 +6°C° 0 mm 2 m/S 705 mmHg 86%
    12:00 +7°C° 0 mm 2 m/S 705 mmHg 83%
    13:00 +8°C° 0 mm 2 m/S 704 mmHg 81%
    14:00 +8°C° 0 mm 2 m/S 704 mmHg 83%
    15:00 +8°C° 0 mm 2 m/S 704 mmHg 85%
    16:00 +8°C° 0 mm 2 m/S 703 mmHg 87%
    17:00 +7°C° 0 mm 2 m/S 703 mmHg 87%
    18:00 +6°C° 0 mm 2 m/S 703 mmHg 88%
    19:00 +5°C° 0 mm 2 m/S 703 mmHg 88%
    20:00 +5°C° 0 mm 2 m/S 703 mmHg 87%
    21:00 +3°C° 0 mm 3 m/S 703 mmHg 86%
    22:00 +3°C° 0 mm 3 m/S 703 mmHg 85%
    23:00 +3°C° 0 mm 3 m/S 702 mmHg 84%

    25 Januar, Donnerstag

    Zeit Temperatur Niederschläge Wind Luftdruck Luftfeuchtigkeit
    00:00 +3°C° 0 mm 3 m/S 702 mmHg 83%
    01:00 +3°C° 0 mm 3 m/S 701 mmHg 82%
    02:00 +3°C° 0 mm 3 m/S 701 mmHg 82%
    03:00 +3°C° 0 mm 3 m/S 701 mmHg 82%
    04:00 +3°C° 0 mm 3 m/S 701 mmHg 82%
    05:00 +3°C° 0 mm 3 m/S 700 mmHg 82%
    06:00 +3°C° 0 mm 3 m/S 700 mmHg 81%
    07:00 +3°C° 0 mm 3 m/S 700 mmHg 81%
    08:00 +3°C° 0 mm 3 m/S 700 mmHg 80%
    09:00 +4°C° 0 mm 3 m/S 700 mmHg 79%
    10:00 +5°C° 0 mm 2 m/S 700 mmHg 78%
    11:00 +5°C° 0,1 mm 3 m/S 699 mmHg 77%
    12:00 +7°C° 0,1 mm 3 m/S 699 mmHg 75%
    13:00 +8°C° 0,1 mm 3 m/S 699 mmHg 73%
    14:00 +7°C° 0,4 mm 3 m/S 699 mmHg 78%
    15:00 +7°C° 0,4 mm 2 m/S 698 mmHg 82%
    16:00 +6°C° 0,4 mm 2 m/S 698 mmHg 87%
    17:00 +7°C° 1 mm 1 m/S 698 mmHg 89%
    18:00 +6°C° 1 mm 1 m/S 698 mmHg 90%
    19:00 +6°C° 1 mm 1 m/S 698 mmHg 92%
    20:00 +5°C° 1,2 mm 1 m/S 698 mmHg 93%
    21:00 +5°C° 1,2 mm 1 m/S 698 mmHg 94%
    22:00 +5°C° 1,2 mm 1 m/S 698 mmHg 95%
    23:00 +4°C° 1,1 mm 1 m/S 698 mmHg 95%

    26 Januar, Freitag

    Zeit Temperatur Niederschläge Wind Luftdruck Luftfeuchtigkeit
    00:00 +4°C° 1,1 mm 1 m/S 698 mmHg 94%
    01:00 +4°C° 1,1 mm 1 m/S 698 mmHg 94%
    02:00 +4°C° 0,8 mm 1 m/S 698 mmHg 94%
    03:00 +3°C° 0,8 mm 1 m/S 698 mmHg 94%
    04:00 +2°C° 0,8 mm 0 m/S 697 mmHg 94%
    05:00 +2°C° 0,8 mm 0 m/S 698 mmHg 94%
    06:00 +3°C° 0,8 mm 1 m/S 698 mmHg 94%
    07:00 +3°C° 0,8 mm 1 m/S 698 mmHg 94%
    08:00 +3°C° 0,6 mm 1 m/S 699 mmHg 94%
    09:00 +3°C° 0,6 mm 1 m/S 699 mmHg 94%
    10:00 +3°C° 0,6 mm 1 m/S 700 mmHg 94%
    11:00 +4°C° 0,5 mm 1 m/S 700 mmHg 93%
    12:00 +3°C° 0,5 mm 2 m/S 700 mmHg 91%
    13:00 +3°C° 0,5 mm 2 m/S 700 mmHg 90%
    14:00 +3°C° 0,3 mm 2 m/S 701 mmHg 90%
    15:00 +3°C° 0,3 mm 2 m/S 701 mmHg 90%
    16:00 +4°C° 0,3 mm 1 m/S 701 mmHg 90%
    17:00 +4°C° 0,1 mm 1 m/S 702 mmHg 91%
    18:00 +3°C° 0,1 mm 1 m/S 702 mmHg 92%
    19:00 +2°C° 0,1 mm 1 m/S 703 mmHg 93%
    20:00 +2°C° 0 mm 1 m/S 703 mmHg 93%
    21:00 +2°C° 0 mm 1 m/S 703 mmHg 93%
    22:00 +2°C° 0 mm 1 m/S 704 mmHg 94%
    23:00 +1°C° 0 mm 1 m/S 704 mmHg 94%
    Mehr zeigen